Time,TemperatureF,DewpointF,PressureIn,WindDirection,WindDirectionDegrees,WindSpeedMPH,WindSpeedGustMPH,Humidity,HourlyPrecipIn,Conditions,Clouds,dailyrainin,SoftwareType,DateUTC
2013-03-09 00:00:00,30.0,21.7,0.00,NNW,338,0.0,0.0,71,0.00,,,0.00,WUHU216HW,2013-03-09 05:00:00,
2013-03-09 00:05:00,30.0,21.7,0.00,NNW,338,0.0,0.0,71,0.00,,,0.00,WUHU216HW,2013-03-09 05:05:00,
2013-03-09 00:10:00,30.0,21.7,0.00,NNW,338,0.0,0.0,71,0.00,,,0.00,WUHU216HW,2013-03-09 05:10:00,
2013-03-09 00:15:00,30.0,21.7,0.00,NNW,338,0.0,0.0,71,0.00,,,0.00,WUHU216HW,2013-03-09 05:15:00,
2013-03-09 00:20:00,30.0,21.7,0.00,NNW,338,0.0,0.0,71,0.00,,,0.00,WUHU216HW,2013-03-09 05:20:00,
2013-03-09 00:25:00,30.0,22.0,0.00,NNW,338,0.0,0.0,72,0.00,,,0.00,WUHU216HW,2013-03-09 05:25:00,
2013-03-09 00:30:00,30.0,22.0,0.00,NNW,338,0.0,0.0,72,0.00,,,0.00,WUHU216HW,2013-03-09 05:30:00,
2013-03-09 00:35:00,29.8,21.8,0.00,NNW,338,0.0,0.0,72,0.00,,,0.00,WUHU216HW,2013-03-09 05:35:00,
2013-03-09 00:40:00,29.8,21.8,0.00,NNW,338,0.0,0.0,72,0.00,,,0.00,WUHU216HW,2013-03-09 05:40:00,
2013-03-09 00:45:00,30.0,22.0,0.00,NNW,338,0.0,0.0,72,0.00,,,0.00,WUHU216HW,2013-03-09 05:45:00,
2013-03-09 00:50:00,30.0,22.0,0.00,NNW,338,0.0,0.0,72,0.00,,,0.00,WUHU216HW,2013-03-09 05:50:00,
2013-03-09 00:55:00,30.0,22.0,0.00,NNW,338,0.0,0.0,72,0.00,,,0.00,WUHU216HW,2013-03-09 05:55:00,
2013-03-09 01:00:00,29.8,22.1,0.00,NNW,338,0.0,0.0,73,0.00,,,0.00,WUHU216HW,2013-03-09 06:00:00,
2013-03-09 01:05:00,30.0,22.3,0.00,NNW,338,0.0,0.0,73,0.00,,,0.00,WUHU216HW,2013-03-09 06:05:00,
2013-03-09 01:10:00,29.8,22.1,0.00,NNW,338,0.0,0.0,73,0.00,,,0.00,WUHU216HW,2013-03-09 06:10:00,
2013-03-09 01:15:00,30.0,22.3,0.00,NNW,338,0.0,0.0,73,0.00,,,0.00,WUHU216HW,2013-03-09 06:15:00,
2013-03-09 01:20:00,29.8,22.1,0.00,NNW,338,0.0,0.0,73,0.00,,,0.00,WUHU216HW,2013-03-09 06:20:00,
2013-03-09 01:25:00,29.6,22.0,0.00,NNW,338,0.0,0.0,73,0.00,,,0.00,WUHU216HW,2013-03-09 06:25:00,
2013-03-09 01:30:00,29.4,21.8,0.00,NNW,338,0.0,0.0,73,0.00,,,0.00,WUHU216HW,2013-03-09 06:30:00,
2013-03-09 01:35:00,29.4,21.8,0.00,NNW,338,0.0,0.0,73,0.00,,,0.00,WUHU216HW,2013-03-09 06:35:00,
2013-03-09 01:40:00,29.4,21.8,0.00,NNW,338,0.0,0.0,73,0.00,,,0.00,WUHU216HW,2013-03-09 06:40:00,
2013-03-09 01:45:00,29.3,22.0,0.00,NNW,338,0.0,0.0,74,0.00,,,0.00,WUHU216HW,2013-03-09 06:45:00,
2013-03-09 01:50:00,29.3,22.0,0.00,North,0,0.0,0.0,74,0.00,,,0.00,WUHU216HW,2013-03-09 06:50:00,
2013-03-09 01:55:00,29.1,21.8,0.00,NNW,338,0.0,0.0,74,0.00,,,0.00,WUHU216HW,2013-03-09 06:55:00,
2013-03-09 02:00:00,29.1,21.8,0.00,NNW,338,0.0,0.0,74,0.00,,,0.00,WUHU216HW,2013-03-09 07:00:00,
2013-03-09 02:05:00,29.1,21.6,0.00,NNW,338,0.0,0.0,74,0.00,,,0.00,WUHU216HW,2013-03-09 07:05:00,
2013-03-09 02:10:00,28.9,21.6,0.00,NNW,338,0.0,0.0,74,0.00,,,0.00,WUHU216HW,2013-03-09 07:10:00,
2013-03-09 02:15:00,28.7,21.4,0.00,NNW,338,0.0,0.0,74,0.00,,,0.00,WUHU216HW,2013-03-09 07:15:00,
2013-03-09 02:20:00,28.7,21.4,0.00,NNW,338,0.0,0.0,74,0.00,,,0.00,WUHU216HW,2013-03-09 07:20:00,
2013-03-09 02:25:00,28.7,21.8,0.00,NNW,338,0.0,0.0,75,0.00,,,0.00,WUHU216HW,2013-03-09 07:25:00,
2013-03-09 02:30:00,28.7,21.8,0.00,NNW,338,0.0,0.0,75,0.00,,,0.00,WUHU216HW,2013-03-09 07:30:00,
2013-03-09 02:35:00,28.7,21.8,0.00,NNW,338,0.0,0.0,75,0.00,,,0.00,WUHU216HW,2013-03-09 07:35:00,
2013-03-09 02:40:00,28.5,21.6,0.00,NNW,338,0.0,0.0,75,0.00,,,0.00,WUHU216HW,2013-03-09 07:40:00,
2013-03-09 02:45:00,28.5,21.6,0.00,NNW,338,0.0,0.0,75,0.00,,,0.00,WUHU216HW,2013-03-09 07:45:00,
2013-03-09 02:50:00,28.5,21.6,0.00,NNW,338,0.0,0.0,75,0.00,,,0.00,WUHU216HW,2013-03-09 07:50:00,
2013-03-09 02:55:00,28.2,21.2,0.00,NNW,338,0.0,0.0,75,0.00,,,0.00,WUHU216HW,2013-03-09 07:55:00,
2013-03-09 03:00:00,28.2,21.2,0.00,NNW,338,0.0,0.0,75,0.00,,,0.00,WUHU216HW,2013-03-09 08:00:00,
2013-03-09 03:05:00,28.2,21.2,0.00,NNW,338,0.0,0.0,75,0.00,,,0.00,WUHU216HW,2013-03-09 08:05:00,
2013-03-09 03:10:00,28.0,21.1,0.00,NNW,338,0.0,0.0,75,0.00,,,0.00,WUHU216HW,2013-03-09 08:10:00,
2013-03-09 03:15:00,27.6,20.7,0.00,NNW,338,0.0,0.0,75,0.00,,,0.00,WUHU216HW,2013-03-09 08:15:00,
2013-03-09 03:20:00,27.6,21.0,0.00,NNW,338,0.0,0.0,76,0.00,,,0.00,WUHU216HW,2013-03-09 08:20:00,
2013-03-09 03:25:00,27.6,21.0,0.00,NNW,338,0.0,0.0,76,0.00,,,0.00,WUHU216HW,2013-03-09 08:25:00,
2013-03-09 03:30:00,27.6,21.0,0.00,NNW,338,0.0,0.0,76,0.00,,,0.00,WUHU216HW,2013-03-09 08:30:00,
2013-03-09 03:35:00,27.6,21.0,0.00,NNW,338,0.0,0.0,76,0.00,,,0.00,WUHU216HW,2013-03-09 08:35:00,
2013-03-09 03:40:00,27.5,20.8,0.00,NNW,338,0.0,0.0,76,0.00,,,0.00,WUHU216HW,2013-03-09 08:40:00,
2013-03-09 03:45:00,27.5,20.8,0.00,NNW,338,0.0,0.0,76,0.00,,,0.00,WUHU216HW,2013-03-09 08:45:00,
2013-03-09 03:50:00,27.3,20.6,0.00,NNW,338,0.0,0.0,76,0.00,,,0.00,WUHU216HW,2013-03-09 08:50:00,
2013-03-09 03:55:00,27.3,20.6,0.00,NNW,338,0.0,0.0,76,0.00,,,0.00,WUHU216HW,2013-03-09 08:55:00,
2013-03-09 04:00:00,27.3,20.6,0.00,NNW,338,0.0,0.0,76,0.00,,,0.00,WUHU216HW,2013-03-09 09:00:00,
2013-03-09 04:05:00,27.3,20.6,0.00,NNW,338,0.0,0.0,76,0.00,,,0.00,WUHU216HW,2013-03-09 09:05:00,
2013-03-09 04:10:00,27.1,20.5,0.00,NNW,338,0.0,0.0,76,0.00,,,0.00,WUHU216HW,2013-03-09 09:10:00,
2013-03-09 04:15:00,27.1,20.5,0.00,NNW,338,0.0,0.0,76,0.00,,,0.00,WUHU216HW,2013-03-09 09:15:00,
2013-03-09 04:20:00,27.1,20.8,0.00,NNW,338,0.0,0.0,77,0.00,,,0.00,WUHU216HW,2013-03-09 09:20:00,
2013-03-09 04:25:00,27.1,20.8,0.00,NNW,338,0.0,0.0,77,0.00,,,0.00,WUHU216HW,2013-03-09 09:25:00,
2013-03-09 04:30:00,27.1,20.8,0.00,NNW,338,0.0,0.0,77,0.00,,,0.00,WUHU216HW,2013-03-09 09:30:00,
2013-03-09 04:35:00,27.1,20.8,0.00,NNW,338,0.0,0.0,77,0.00,,,0.00,WUHU216HW,2013-03-09 09:35:00,
2013-03-09 04:40:00,27.1,20.8,0.00,NNW,338,0.0,0.0,77,0.00,,,0.00,WUHU216HW,2013-03-09 09:40:00,
2013-03-09 04:45:00,27.1,20.8,0.00,NNW,338,0.0,0.0,77,0.00,,,0.00,WUHU216HW,2013-03-09 09:45:00,
2013-03-09 04:50:00,26.9,20.6,0.00,NNW,338,0.0,0.0,77,0.00,,,0.00,WUHU216HW,2013-03-09 09:50:00,
2013-03-09 04:55:00,26.7,20.4,0.00,NNW,338,0.0,0.0,77,0.00,,,0.00,WUHU216HW,2013-03-09 09:55:00,
2013-03-09 05:00:00,26.6,20.2,0.00,NNW,338,0.0,0.0,77,0.00,,,0.00,WUHU216HW,2013-03-09 10:00:00,
2013-03-09 05:05:00,26.4,20.1,0.00,NNW,338,0.0,0.0,77,0.00,,,0.00,WUHU216HW,2013-03-09 10:05:00,
2013-03-09 05:10:00,26.2,19.9,0.00,NNW,338,0.0,0.0,77,0.00,,,0.00,WUHU216HW,2013-03-09 10:10:00,
2013-03-09 05:15:00,26.2,19.9,0.00,NNW,338,0.0,0.0,77,0.00,,,0.00,WUHU216HW,2013-03-09 10:15:00,
2013-03-09 05:20:00,26.2,19.9,0.00,NNW,338,0.0,0.0,77,0.00,,,0.00,WUHU216HW,2013-03-09 10:20:00,
2013-03-09 05:25:00,26.2,19.9,0.00,NNW,338,0.0,0.0,77,0.00,,,0.00,WUHU216HW,2013-03-09 10:25:00,
2013-03-09 05:30:00,26.2,20.2,0.00,NNW,338,0.0,0.0,78,0.00,,,0.00,WUHU216HW,2013-03-09 10:30:00,
2013-03-09 05:35:00,26.2,20.2,0.00,NNW,338,0.0,0.0,78,0.00,,,0.00,WUHU216HW,2013-03-09 10:35:00,
2013-03-09 05:40:00,26.2,20.2,0.00,NNW,338,0.0,0.0,78,0.00,,,0.00,WUHU216HW,2013-03-09 10:40:00,
2013-03-09 05:45:00,26.0,20.0,0.00,NNW,338,0.0,0.0,78,0.00,,,0.00,WUHU216HW,2013-03-09 10:45:00,
2013-03-09 05:50:00,25.8,19.9,0.00,NNW,338,0.0,0.0,78,0.00,,,0.00,WUHU216HW,2013-03-09 10:50:00,
2013-03-09 05:55:00,25.8,19.9,0.00,NNW,338,0.0,0.0,78,0.00,,,0.00,WUHU216HW,2013-03-09 10:55:00,
2013-03-09 05:59:00,25.7,19.7,0.00,NNW,338,0.0,0.0,78,0.00,,,0.00,WUHU216HW,2013-03-09 10:59:00,
2013-03-09 06:04:00,25.7,19.7,0.00,NNW,338,0.0,0.0,78,0.00,,,0.00,WUHU216HW,2013-03-09 11:04:00,
2013-03-09 06:09:00,25.5,19.5,0.00,NNW,338,0.0,0.0,78,0.00,,,0.00,WUHU216HW,2013-03-09 11:09:00,
2013-03-09 06:14:00,25.5,19.5,0.00,NNW,338,0.0,0.0,78,0.00,,,0.00,WUHU216HW,2013-03-09 11:14:00,
2013-03-09 06:19:00,25.5,19.5,0.00,NNW,338,0.0,0.0,78,0.00,,,0.00,WUHU216HW,2013-03-09 11:19:00,
2013-03-09 06:24:00,25.5,19.5,0.00,NNW,338,0.0,0.0,78,0.00,,,0.00,WUHU216HW,2013-03-09 11:24:00,
2013-03-09 06:29:00,25.7,20.0,0.00,NNW,338,0.0,0.0,79,0.00,,,0.00,WUHU216HW,2013-03-09 11:29:00,
2013-03-09 06:34:00,25.7,20.0,0.00,NNW,338,0.0,0.0,79,0.00,,,0.00,WUHU216HW,2013-03-09 11:34:00,
2013-03-09 06:39:00,25.7,20.0,0.00,NNW,338,0.0,0.0,79,0.00,,,0.00,WUHU216HW,2013-03-09 11:39:00,
2013-03-09 06:44:00,25.7,20.0,0.00,NNW,338,0.0,0.0,79,0.00,,,0.00,WUHU216HW,2013-03-09 11:44:00,
2013-03-09 06:49:00,25.7,20.0,0.00,NNW,338,0.0,0.0,79,0.00,,,0.00,WUHU216HW,2013-03-09 11:49:00,
2013-03-09 06:54:00,25.5,19.5,0.00,NNW,338,0.0,0.0,78,0.00,,,0.00,WUHU216HW,2013-03-09 11:54:00,
2013-03-09 06:59:00,25.5,19.5,0.00,NNW,338,0.0,0.0,78,0.00,,,0.00,WUHU216HW,2013-03-09 11:59:00,
2013-03-09 07:04:00,25.7,20.0,0.00,NNW,338,0.0,0.0,79,0.00,,,0.00,WUHU216HW,2013-03-09 12:04:00,
2013-03-09 07:09:00,25.5,19.5,0.00,NNW,338,0.0,0.0,78,0.00,,,0.00,WUHU216HW,2013-03-09 12:09:00,
2013-03-09 07:14:00,25.5,19.5,0.00,NNW,338,0.0,0.0,78,0.00,,,0.00,WUHU216HW,2013-03-09 12:14:00,
2013-03-09 07:19:00,25.5,19.9,0.00,NNW,338,0.0,0.0,79,0.00,,,0.00,WUHU216HW,2013-03-09 12:19:00,
2013-03-09 07:24:00,25.7,20.0,0.00,NNW,338,0.0,0.0,79,0.00,,,0.00,WUHU216HW,2013-03-09 12:24:00,
2013-03-09 07:29:00,25.8,20.0,0.00,NNW,338,0.0,0.0,79,0.00,,,0.00,WUHU216HW,2013-03-09 12:29:00,
2013-03-09 07:34:00,25.8,20.2,0.00,NNW,338,0.0,0.0,79,0.00,,,0.00,WUHU216HW,2013-03-09 12:34:00,
2013-03-09 07:39:00,26.0,20.3,0.00,NNW,338,0.0,0.0,79,0.00,,,0.00,WUHU216HW,2013-03-09 12:39:00,
2013-03-09 07:44:00,26.2,20.5,0.00,NNW,338,0.0,0.0,79,0.00,,,0.00,WUHU216HW,2013-03-09 12:44:00,
2013-03-09 07:49:00,26.4,20.7,0.00,NNW,338,0.0,0.0,79,0.00,,,0.00,WUHU216HW,2013-03-09 12:49:00,
2013-03-09 07:54:00,26.7,21.0,0.00,NNW,338,0.0,0.0,79,0.00,,,0.00,WUHU216HW,2013-03-09 12:54:00,
2013-03-09 07:59:00,26.9,21.2,0.00,NNW,338,0.0,0.0,79,0.00,,,0.00,WUHU216HW,2013-03-09 12:59:00,
2013-03-09 08:04:00,27.3,21.6,0.00,NNW,338,0.0,0.0,79,0.00,,,0.00,WUHU216HW,2013-03-09 13:04:00,
2013-03-09 08:09:00,27.6,21.9,0.00,NNW,338,0.0,0.0,79,0.00,,,0.00,WUHU216HW,2013-03-09 13:09:00,
2013-03-09 08:14:00,28.0,22.6,0.00,NNW,338,0.0,0.0,80,0.00,,,0.00,WUHU216HW,2013-03-09 13:14:00,
2013-03-09 08:19:00,28.2,22.8,0.00,NNW,338,0.0,0.0,80,0.00,,,0.00,WUHU216HW,2013-03-09 13:19:00,
2013-03-09 08:24:00,28.5,23.1,0.00,NNW,338,0.0,0.0,80,0.00,,,0.00,WUHU216HW,2013-03-09 13:24:00,
2013-03-09 08:29:00,28.9,23.5,0.00,NNW,338,0.0,0.0,80,0.00,,,0.00,WUHU216HW,2013-03-09 13:29:00,
2013-03-09 08:34:00,29.1,23.7,0.00,NNW,338,0.0,0.0,80,0.00,,,0.00,WUHU216HW,2013-03-09 13:34:00,
2013-03-09 08:39:00,29.4,24.0,0.00,NNW,338,0.0,0.0,80,0.00,,,0.00,WUHU216HW,2013-03-09 13:39:00,
2013-03-09 08:44:00,29.8,24.4,0.00,NNW,338,0.0,0.0,80,0.00,,,0.00,WUHU216HW,2013-03-09 13:44:00,
2013-03-09 08:49:00,30.0,24.6,0.00,NNW,338,0.0,0.0,80,0.00,,,0.00,WUHU216HW,2013-03-09 13:49:00,
2013-03-09 08:54:00,30.5,25.1,0.00,NNW,338,0.0,0.0,80,0.00,,,0.00,WUHU216HW,2013-03-09 13:54:00,
2013-03-09 08:59:00,30.9,25.5,0.00,North,0,0.0,0.0,80,0.00,,,0.00,WUHU216HW,2013-03-09 13:59:00,
2013-03-09 09:04:00,31.2,25.8,0.00,North,0,0.0,0.0,80,0.00,,,0.00,WUHU216HW,2013-03-09 14:04:00,
2013-03-09 09:09:00,31.8,26.4,0.00,North,0,0.0,0.0,80,0.00,,,0.00,WUHU216HW,2013-03-09 14:09:00,
2013-03-09 09:14:00,32.1,26.7,0.00,North,0,0.0,0.0,80,0.00,,,0.00,WUHU216HW,2013-03-09 14:14:00,
2013-03-09 09:19:00,32.7,26.9,0.00,North,0,0.0,0.0,79,0.00,,,0.00,WUHU216HW,2013-03-09 14:19:00,
2013-03-09 09:24:00,33.0,27.2,0.00,North,0,0.0,0.0,79,0.00,,,0.00,WUHU216HW,2013-03-09 14:24:00,
2013-03-09 09:29:00,33.6,27.7,0.00,North,0,0.0,0.0,79,0.00,,,0.00,WUHU216HW,2013-03-09 14:29:00,
2013-03-09 09:34:00,34.1,28.2,0.00,North,0,0.0,0.0,79,0.00,,,0.00,WUHU216HW,2013-03-09 14:34:00,
2013-03-09 09:39:00,34.3,28.2,0.00,ESE,113,0.0,0.0,78,0.00,,,0.00,WUHU216HW,2013-03-09 14:39:00,
2013-03-09 09:44:00,35.0,28.8,0.00,ESE,113,0.0,0.0,78,0.00,,,0.00,WUHU216HW,2013-03-09 14:44:00,
2013-03-09 09:49:00,35.4,29.1,0.00,ESE,113,0.0,0.0,78,0.00,,,0.00,WUHU216HW,2013-03-09 14:49:00,
2013-03-09 09:54:00,35.9,29.7,0.00,ESE,113,0.0,0.0,78,0.00,,,0.00,WUHU216HW,2013-03-09 14:54:00,
2013-03-09 09:59:00,36.6,30.1,0.00,ESE,113,0.0,0.0,77,0.00,,,0.00,WUHU216HW,2013-03-09 14:59:00,
2013-03-09 10:04:00,37.2,30.6,0.00,NNW,338,0.0,0.0,77,0.00,,,0.00,WUHU216HW,2013-03-09 15:04:00,
2013-03-09 10:09:00,37.9,31.0,0.00,NNW,338,0.0,0.0,76,0.00,,,0.00,WUHU216HW,2013-03-09 15:09:00,
2013-03-09 10:14:00,38.8,31.3,0.00,NNW,338,0.0,0.0,75,0.00,,,0.00,WUHU216HW,2013-03-09 15:14:00,
2013-03-09 10:19:00,39.3,31.7,0.00,NNW,338,0.0,0.0,74,0.00,,,0.00,WUHU216HW,2013-03-09 15:19:00,
2013-03-09 10:24:00,39.9,32.2,0.00,NNW,338,0.0,0.0,74,0.00,,,0.00,WUHU216HW,2013-03-09 15:24:00,
2013-03-09 10:29:00,40.8,32.4,0.00,NNW,338,0.0,0.0,72,0.00,,,0.00,WUHU216HW,2013-03-09 15:29:00,
2013-03-09 10:34:00,41.7,33.0,0.00,NW,315,0.0,0.0,71,0.00,,,0.00,WUHU216HW,2013-03-09 15:34:00,
2013-03-09 10:39:00,42.6,33.2,0.00,NW,315,0.0,0.0,69,0.00,,,0.00,WUHU216HW,2013-03-09 15:39:00,
2013-03-09 10:44:00,43.5,32.8,0.00,NW,315,0.0,2.9,65,0.00,,,0.00,WUHU216HW,2013-03-09 15:44:00,
2013-03-09 10:49:00,44.9,32.9,0.00,NW,315,0.0,2.9,63,0.00,,,0.00,WUHU216HW,2013-03-09 15:49:00,
2013-03-09 10:54:00,45.8,32.7,0.00,NW,315,0.0,1.3,60,0.00,,,0.00,WUHU216HW,2013-03-09 15:54:00,
2013-03-09 10:59:00,46.5,32.5,0.00,NW,315,0.0,0.0,58,0.00,,,0.00,WUHU216HW,2013-03-09 15:59:00,
2013-03-09 11:04:00,46.9,32.1,0.00,NW,315,0.0,0.0,57,0.00,,,0.00,WUHU216HW,2013-03-09 16:04:00,
2013-03-09 11:09:00,47.6,32.6,0.00,NW,315,0.0,0.0,56,0.00,,,0.00,WUHU216HW,2013-03-09 16:09:00,
2013-03-09 11:14:00,48.0,32.5,0.00,NW,315,0.0,1.5,55,0.00,,,0.00,WUHU216HW,2013-03-09 16:14:00,
2013-03-09 11:19:00,48.5,31.6,0.00,NW,315,0.0,1.5,52,0.00,,,0.00,WUHU216HW,2013-03-09 16:19:00,
2013-03-09 11:24:00,48.9,32.4,0.00,NNW,338,0.0,1.3,53,0.00,,,0.00,WUHU216HW,2013-03-09 16:24:00,
2013-03-09 11:29:00,49.2,32.8,0.00,NW,315,0.0,0.0,53,0.00,,,0.00,WUHU216HW,2013-03-09 16:29:00,
2013-03-09 11:34:00,49.6,33.1,0.00,NW,315,0.0,0.0,53,0.00,,,0.00,WUHU216HW,2013-03-09 16:34:00,
2013-03-09 11:39:00,49.8,32.9,0.00,North,0,0.0,0.0,52,0.00,,,0.00,WUHU216HW,2013-03-09 16:39:00,
2013-03-09 11:44:00,50.3,32.5,0.00,NW,315,0.0,8.2,50,0.00,,,0.00,WUHU216HW,2013-03-09 16:44:00,
2013-03-09 11:49:00,50.9,32.4,0.00,NW,315,0.0,8.2,49,0.00,,,0.00,WUHU216HW,2013-03-09 16:49:00,
2013-03-09 11:54:00,51.4,32.3,0.00,NW,315,0.0,0.0,48,0.00,,,0.00,WUHU216HW,2013-03-09 16:54:00,
2013-03-09 11:59:00,51.6,33.0,0.00,WNW,293,0.0,0.0,49,0.00,,,0.00,WUHU216HW,2013-03-09 16:59:00,
2013-03-09 12:04:00,51.9,32.8,0.00,NNW,338,0.0,0.0,48,0.00,,,0.00,WUHU216HW,2013-03-09 17:04:00,
2013-03-09 12:09:00,52.3,33.1,0.00,NW,315,0.0,0.0,48,0.00,,,0.00,WUHU216HW,2013-03-09 17:09:00,
2013-03-09 12:14:00,52.8,32.5,0.00,NW,315,0.0,0.0,46,0.00,,,0.00,WUHU216HW,2013-03-09 17:14:00,
2013-03-09 12:19:00,53.0,33.2,0.00,NW,315,0.0,0.0,47,0.00,,,0.00,WUHU216HW,2013-03-09 17:19:00,
2013-03-09 12:24:00,53.4,33.5,0.00,West,270,0.0,0.0,47,0.00,,,0.00,WUHU216HW,2013-03-09 17:24:00,
2013-03-09 12:29:00,53.7,32.2,0.00,NNW,338,0.0,1.5,44,0.00,,,0.00,WUHU216HW,2013-03-09 17:29:00,
2013-03-09 12:34:00,54.3,33.2,0.00,North,0,0.0,1.5,45,0.00,,,0.00,WUHU216HW,2013-03-09 17:34:00,
2013-03-09 12:40:00,54.8,33.6,0.00,NNW,338,0.0,0.0,45,0.00,,,0.00,WUHU216HW,2013-03-09 17:40:00,
2013-03-09 12:45:00,55.2,32.9,0.00,NW,315,0.0,0.0,43,0.00,,,0.00,WUHU216HW,2013-03-09 17:45:00,
2013-03-09 12:50:00,55.9,33.6,0.00,NW,315,0.0,0.0,43,0.00,,,0.00,WUHU216HW,2013-03-09 17:50:00,
2013-03-09 12:55:00,56.3,33.9,0.00,NW,315,0.0,0.0,43,0.00,,,0.00,WUHU216HW,2013-03-09 17:55:00,
2013-03-09 13:00:00,56.8,34.4,0.00,WNW,293,0.0,0.0,43,0.00,,,0.00,WUHU216HW,2013-03-09 18:00:00,
2013-03-09 13:05:00,57.0,32.9,0.00,WNW,293,0.0,0.0,40,0.00,,,0.00,WUHU216HW,2013-03-09 18:05:00,
2013-03-09 13:10:00,57.5,33.9,0.00,West,270,0.0,0.0,41,0.00,,,0.00,WUHU216HW,2013-03-09 18:10:00,
2013-03-09 13:15:00,57.9,34.8,0.00,NW,315,0.0,0.0,42,0.00,,,0.00,WUHU216HW,2013-03-09 18:15:00,
2013-03-09 13:20:00,58.2,35.7,0.00,SW,225,0.0,0.0,43,0.00,,,0.00,WUHU216HW,2013-03-09 18:20:00,
2013-03-09 13:25:00,58.8,35.1,0.00,WNW,293,0.0,0.0,41,0.00,,,0.00,WUHU216HW,2013-03-09 18:25:00,
2013-03-09 13:30:00,58.8,35.1,0.00,WSW,248,0.0,0.0,41,0.00,,,0.00,WUHU216HW,2013-03-09 18:30:00,
2013-03-09 13:35:00,58.8,35.1,0.00,West,270,0.0,0.0,41,0.00,,,0.00,WUHU216HW,2013-03-09 18:35:00,
2013-03-09 13:40:00,59.3,35.0,0.00,NNW,338,0.0,0.0,40,0.00,,,0.00,WUHU216HW,2013-03-09 18:40:00,
2013-03-09 13:45:00,59.5,34.4,0.00,NW,315,0.0,0.0,39,0.00,,,0.00,WUHU216HW,2013-03-09 18:45:00,
2013-03-09 13:50:00,59.5,34.4,0.00,NW,315,0.0,0.0,39,0.00,,,0.00,WUHU216HW,2013-03-09 18:50:00,
2013-03-09 13:55:00,59.7,35.3,0.00,NNW,338,0.0,0.0,40,0.00,,,0.00,WUHU216HW,2013-03-09 18:55:00,
2013-03-09 14:00:00,59.9,35.5,0.00,NW,315,0.0,0.0,40,0.00,,,0.00,WUHU216HW,2013-03-09 19:00:00,
2013-03-09 14:05:00,60.0,34.0,0.00,NNW,338,0.0,0.0,38,0.00,,,0.00,WUHU216HW,2013-03-09 19:05:00,
2013-03-09 14:10:00,60.0,34.2,0.00,WNW,293,0.0,0.0,38,0.00,,,0.00,WUHU216HW,2013-03-09 19:10:00,
2013-03-09 14:15:00,60.0,33.5,0.00,NW,315,0.0,0.0,37,0.00,,,0.00,WUHU216HW,2013-03-09 19:15:00,
2013-03-09 14:20:00,60.2,33.6,0.00,NW,315,1.5,1.5,37,0.00,,,0.00,WUHU216HW,2013-03-09 19:20:00,
2013-03-09 14:25:00,60.4,33.1,0.00,NW,315,0.0,1.5,36,0.00,,,0.00,WUHU216HW,2013-03-09 19:25:00,
2013-03-09 14:30:00,60.6,33.9,0.00,NW,315,0.0,0.0,37,0.00,,,0.00,WUHU216HW,2013-03-09 19:30:00,
2013-03-09 14:35:00,60.6,33.2,0.00,WNW,293,0.0,0.0,36,0.00,,,0.00,WUHU216HW,2013-03-09 19:35:00,
2013-03-09 14:40:00,60.6,33.2,0.00,NW,315,0.0,0.0,36,0.00,,,0.00,WUHU216HW,2013-03-09 19:40:00,
2013-03-09 14:45:00,60.9,33.6,0.00,NW,315,0.0,0.0,36,0.00,,,0.00,WUHU216HW,2013-03-09 19:45:00,
2013-03-09 14:50:00,60.9,33.6,0.00,NNW,338,0.0,0.0,36,0.00,,,0.00,WUHU216HW,2013-03-09 19:50:00,
2013-03-09 14:55:00,60.9,33.6,0.00,NW,315,0.0,0.0,36,0.00,,,0.00,WUHU216HW,2013-03-09 19:55:00,
2013-03-09 15:00:00,60.8,33.4,0.00,NNW,338,0.0,0.0,36,0.00,,,0.00,WUHU216HW,2013-03-09 20:00:00,
2013-03-09 15:05:00,60.8,33.4,0.00,NW,315,0.0,0.0,36,0.00,,,0.00,WUHU216HW,2013-03-09 20:05:00,
2013-03-09 15:10:00,60.9,33.6,0.00,NW,315,0.0,0.0,36,0.00,,,0.00,WUHU216HW,2013-03-09 20:10:00,
2013-03-09 15:15:00,60.9,33.6,0.00,NW,315,0.0,0.0,36,0.00,,,0.00,WUHU216HW,2013-03-09 20:15:00,
2013-03-09 15:20:00,60.9,32.8,0.00,NNW,338,0.0,0.0,35,0.00,,,0.00,WUHU216HW,2013-03-09 20:20:00,
2013-03-09 15:25:00,61.1,33.0,0.00,NW,315,1.1,2.9,35,0.00,,,0.00,WUHU216HW,2013-03-09 20:25:00,
2013-03-09 15:30:00,61.3,33.2,0.00,NW,315,0.0,2.9,35,0.00,,,0.00,WUHU216HW,2013-03-09 20:30:00,
2013-03-09 15:35:00,61.1,33.7,0.00,NNW,338,0.0,0.0,36,0.00,,,0.00,WUHU216HW,2013-03-09 20:35:00,
2013-03-09 15:40:00,60.9,33.6,0.00,NNW,338,0.0,0.0,36,0.00,,,0.00,WUHU216HW,2013-03-09 20:40:00,
2013-03-09 15:45:00,60.9,32.8,0.00,NW,315,0.0,6.0,35,0.00,,,0.00,WUHU216HW,2013-03-09 20:45:00,
2013-03-09 15:50:00,61.3,33.9,0.00,NW,315,0.0,6.0,36,0.00,,,0.00,WUHU216HW,2013-03-09 20:50:00,
2013-03-09 15:55:00,61.3,33.9,0.00,NNW,338,0.0,0.0,36,0.00,,,0.00,WUHU216HW,2013-03-09 20:55:00,
2013-03-09 16:00:00,61.3,33.9,0.00,South,180,0.0,0.0,36,0.00,,,0.00,WUHU216HW,2013-03-09 21:00:00,
2013-03-09 16:05:00,61.1,33.7,0.00,NW,315,0.0,0.0,36,0.00,,,0.00,WUHU216HW,2013-03-09 21:05:00,
2013-03-09 16:10:00,61.3,33.2,0.00,WNW,293,0.0,0.0,36,0.00,,,0.00,WUHU216HW,2013-03-09 21:10:00,
2013-03-09 16:15:00,61.3,33.2,0.00,WNW,293,0.0,3.3,35,0.00,,,0.00,WUHU216HW,2013-03-09 21:15:00,
2013-03-09 16:20:00,61.5,33.3,0.00,NW,315,1.1,3.3,35,0.00,,,0.00,WUHU216HW,2013-03-09 21:20:00,
2013-03-09 16:25:00,61.3,33.2,0.00,North,0,0.0,1.1,35,0.00,,,0.00,WUHU216HW,2013-03-09 21:25:00,
2013-03-09 16:30:00,61.3,33.9,0.00,NNW,338,0.0,0.0,36,0.00,,,0.00,WUHU216HW,2013-03-09 21:30:00,
2013-03-09 16:35:00,61.1,33.0,0.00,NW,315,0.0,0.0,35,0.00,,,0.00,WUHU216HW,2013-03-09 21:35:00,
2013-03-09 16:40:00,61.1,33.0,0.00,NW,315,0.0,3.1,35,0.00,,,0.00,WUHU216HW,2013-03-09 21:40:00,
2013-03-09 16:45:00,61.3,33.2,0.00,NW,315,1.3,3.1,35,0.00,,,0.00,WUHU216HW,2013-03-09 21:45:00,
2013-03-09 16:50:00,61.3,32.4,0.00,North,0,0.0,1.5,34,0.00,,,0.00,WUHU216HW,2013-03-09 21:50:00,
2013-03-09 16:55:00,61.1,33.0,0.00,NW,315,0.0,1.3,35,0.00,,,0.00,WUHU216HW,2013-03-09 21:55:00,
2013-03-09 17:00:00,61.1,33.0,0.00,NW,315,0.0,4.2,35,0.00,,,0.00,WUHU216HW,2013-03-09 22:00:00,
2013-03-09 17:05:00,61.1,33.0,0.00,NW,315,0.0,4.2,35,0.00,,,0.00,WUHU216HW,2013-03-09 22:05:00,
2013-03-09 17:10:00,60.9,32.8,0.00,NW,315,0.0,0.0,35,0.00,,,0.00,WUHU216HW,2013-03-09 22:10:00,
2013-03-09 17:15:00,60.9,32.8,0.00,NW,315,0.0,0.0,35,0.00,,,0.00,WUHU216HW,2013-03-09 22:15:00,
2013-03-09 17:20:00,60.6,32.5,0.00,WNW,293,0.0,0.0,35,0.00,,,0.00,WUHU216HW,2013-03-09 22:20:00,
2013-03-09 17:25:00,60.6,32.5,0.00,NW,315,5.5,5.5,35,0.00,,,0.00,WUHU216HW,2013-03-09 22:25:00,
2013-03-09 17:30:00,60.4,32.4,0.00,NW,315,0.0,5.5,35,0.00,,,0.00,WUHU216HW,2013-03-09 22:30:00,
2013-03-09 17:35:00,60.4,32.4,0.00,NW,315,4.9,6.0,35,0.00,,,0.00,WUHU216HW,2013-03-09 22:35:00,
2013-03-09 17:40:00,60.0,32.1,0.00,NW,315,3.8,6.0,35,0.00,,,0.00,WUHU216HW,2013-03-09 22:40:00,
2013-03-09 17:45:00,59.9,31.9,0.00,WNW,293,0.0,5.1,35,0.00,,,0.00,WUHU216HW,2013-03-09 22:45:00,
2013-03-09 17:50:00,59.7,31.8,0.00,WNW,293,0.0,5.1,35,0.00,,,0.00,WUHU216HW,2013-03-09 22:50:00,
2013-03-09 17:55:00,59.5,32.3,0.00,WNW,293,0.0,3.1,36,0.00,,,0.00,WUHU216HW,2013-03-09 22:55:00,
2013-03-09 18:00:00,59.1,32.0,0.00,WNW,293,0.0,4.2,36,0.00,,,0.00,WUHU216HW,2013-03-09 23:00:00,
2013-03-09 18:05:00,58.8,31.7,0.00,NW,315,0.0,4.2,36,0.00,,,0.00,WUHU216HW,2013-03-09 23:05:00,
2013-03-09 18:10:00,58.8,31.7,0.00,NNW,338,0.0,4.2,36,0.00,,,0.00,WUHU216HW,2013-03-09 23:10:00,
2013-03-09 18:15:00,58.4,31.4,0.00,NNW,338,4.2,4.9,36,0.00,,,0.00,WUHU216HW,2013-03-09 23:15:00,
2013-03-09 18:20:00,58.2,31.2,0.00,NW,315,0.0,4.9,36,0.00,,,0.00,WUHU216HW,2013-03-09 23:20:00,
2013-03-09 18:25:00,57.9,31.6,0.00,NW,315,0.0,0.0,37,0.00,,,0.00,WUHU216HW,2013-03-09 23:25:00,
2013-03-09 18:30:00,57.7,31.4,0.00,NNW,338,6.0,6.0,37,0.00,,,0.00,WUHU216HW,2013-03-09 23:30:00,
2013-03-09 18:35:00,57.3,31.1,0.00,NNW,338,0.0,6.0,37,0.00,,,0.00,WUHU216HW,2013-03-09 23:35:00,
2013-03-09 18:40:00,57.3,31.1,0.00,NW,315,0.0,9.8,37,0.00,,,0.00,WUHU216HW,2013-03-09 23:40:00,
2013-03-09 18:45:00,57.0,30.8,0.00,NNW,338,0.0,9.8,37,0.00,,,0.00,WUHU216HW,2013-03-09 23:45:00,
2013-03-09 18:50:00,56.8,30.6,0.00,WNW,293,0.0,4.2,37,0.00,,,0.00,WUHU216HW,2013-03-09 23:50:00,
2013-03-09 18:55:00,56.8,30.6,0.00,NW,315,0.0,4.2,37,0.00,,,0.00,WUHU216HW,2013-03-09 23:55:00,
2013-03-09 19:00:00,56.4,30.3,0.00,West,270,0.0,0.0,37,0.00,,,0.00,WUHU216HW,2013-03-10 00:00:00,
2013-03-09 19:05:00,56.3,30.1,0.00,NNW,338,3.3,3.3,37,0.00,,,0.00,WUHU216HW,2013-03-10 00:05:00,
2013-03-09 19:10:00,56.1,30.0,0.00,NNW,338,6.2,6.2,37,0.00,,,0.00,WUHU216HW,2013-03-10 00:10:00,
2013-03-09 19:15:00,55.9,29.8,0.00,NNW,338,2.9,6.2,37,0.00,,,0.00,WUHU216HW,2013-03-10 00:15:00,
2013-03-09 19:20:00,55.7,29.6,0.00,NW,315,2.0,6.0,37,0.00,,,0.00,WUHU216HW,2013-03-10 00:20:00,
2013-03-09 19:25:00,55.5,30.2,0.00,NW,315,0.0,2.9,38,0.00,,,0.00,WUHU216HW,2013-03-10 00:25:00,
2013-03-09 19:30:00,55.4,30.0,0.00,NW,315,0.0,6.7,38,0.00,,,0.00,WUHU216HW,2013-03-10 00:30:00,
2013-03-09 19:35:00,55.2,29.8,0.00,NW,315,1.5,6.7,38,0.00,,,0.00,WUHU216HW,2013-03-10 00:35:00,
2013-03-09 19:40:00,55.2,29.7,0.00,NW,315,0.0,4.2,38,0.00,,,0.00,WUHU216HW,2013-03-10 00:40:00,
2013-03-09 19:45:00,55.0,29.7,0.00,NW,315,0.0,1.7,38,0.00,,,0.00,WUHU216HW,2013-03-10 00:45:00,
2013-03-09 19:50:00,54.6,29.4,0.00,NW,315,5.3,6.0,38,0.00,,,0.00,WUHU216HW,2013-03-10 00:50:00,
2013-03-09 19:55:00,54.6,29.4,0.00,NW,315,1.3,6.0,38,0.00,,,0.00,WUHU216HW,2013-03-10 00:55:00,
2013-03-09 20:00:00,54.5,29.2,0.00,NW,315,0.0,1.3,38,0.00,,,0.00,WUHU216HW,2013-03-10 01:00:00,
2013-03-09 20:05:00,54.3,29.1,0.00,WNW,293,1.3,2.9,38,0.00,,,0.00,WUHU216HW,2013-03-10 01:05:00,
2013-03-09 20:10:00,54.3,29.1,0.00,NW,315,0.0,2.9,38,0.00,,,0.00,WUHU216HW,2013-03-10 01:10:00,
2013-03-09 20:15:00,54.1,28.9,0.00,NW,315,3.3,5.5,38,0.00,,,0.00,WUHU216HW,2013-03-10 01:15:00,
2013-03-09 20:20:00,54.1,28.9,0.00,NW,315,2.9,5.5,38,0.00,,,0.00,WUHU216HW,2013-03-10 01:20:00,
2013-03-09 20:25:00,54.1,28.9,0.00,NW,315,5.8,5.8,38,0.00,,,0.00,WUHU216HW,2013-03-10 01:25:00,
2013-03-09 20:30:00,54.1,28.9,0.00,WNW,293,1.5,5.8,38,0.00,,,0.00,WUHU216HW,2013-03-10 01:30:00,
2013-03-09 20:35:00,54.1,28.9,0.00,NW,315,2.6,5.3,38,0.00,,,0.00,WUHU216HW,2013-03-10 01:35:00,
2013-03-09 20:40:00,54.1,28.9,0.00,NW,315,2.0,5.3,38,0.00,,,0.00,WUHU216HW,2013-03-10 01:40:00,
2013-03-09 20:45:00,53.9,28.7,0.00,WNW,293,0.0,4.2,38,0.00,,,0.00,WUHU216HW,2013-03-10 01:45:00,
2013-03-09 20:50:00,53.9,28.7,0.00,NW,315,2.6,5.5,38,0.00,,,0.00,WUHU216HW,2013-03-10 01:50:00,
2013-03-09 20:55:00,53.9,28.7,0.00,NNW,338,1.7,5.5,38,0.00,,,0.00,WUHU216HW,2013-03-10 01:55:00,
2013-03-09 21:00:00,53.7,28.6,0.00,NNW,338,2.0,4.2,38,0.00,,,0.00,WUHU216HW,2013-03-10 02:00:00,
2013-03-09 21:05:00,53.7,28.6,0.00,NW,315,7.3,7.3,38,0.00,,,0.00,WUHU216HW,2013-03-10 02:05:00,
2013-03-09 21:10:00,53.7,28.6,0.00,NNW,338,2.9,7.3,38,0.00,,,0.00,WUHU216HW,2013-03-10 02:10:00,
2013-03-09 21:15:00,53.7,28.6,0.00,NW,315,0.0,6.4,38,0.00,,,0.00,WUHU216HW,2013-03-10 02:15:00,
2013-03-09 21:20:00,53.4,28.9,0.00,NW,315,0.0,6.4,39,0.00,,,0.00,WUHU216HW,2013-03-10 02:20:00,
2013-03-09 21:25:00,53.4,28.9,0.00,West,270,3.1,5.3,39,0.00,,,0.00,WUHU216HW,2013-03-10 02:25:00,
2013-03-09 21:30:00,53.4,28.9,0.00,NW,315,2.4,4.9,39,0.00,,,0.00,WUHU216HW,2013-03-10 02:30:00,
2013-03-09 21:35:00,53.4,28.9,0.00,NNW,338,0.0,5.3,39,0.00,,,0.00,WUHU216HW,2013-03-10 02:35:00,
2013-03-09 21:40:00,53.4,28.9,0.00,NNW,338,5.8,5.8,39,0.00,,,0.00,WUHU216HW,2013-03-10 02:40:00,
2013-03-09 21:45:00,53.4,29.6,0.00,NNW,338,2.9,5.8,40,0.00,,,0.00,WUHU216HW,2013-03-10 02:45:00,
2013-03-09 21:50:00,53.2,29.5,0.00,NNW,338,4.0,7.1,40,0.00,,,0.00,WUHU216HW,2013-03-10 02:50:00,
2013-03-09 21:55:00,53.2,29.5,0.00,WNW,293,2.6,7.1,40,0.00,,,0.00,WUHU216HW,2013-03-10 02:55:00,
2013-03-09 22:00:00,53.2,29.5,0.00,NW,315,0.8,4.2,40,0.00,,,0.00,WUHU216HW,2013-03-10 03:00:00,
2013-03-09 22:05:00,53.2,29.5,0.00,NW,315,4.6,4.6,40,0.00,,,0.00,WUHU216HW,2013-03-10 03:05:00,
2013-03-09 22:10:00,53.2,29.5,0.00,NW,315,3.3,4.6,40,0.00,,,0.00,WUHU216HW,2013-03-10 03:10:00,
2013-03-09 22:15:00,52.8,29.1,0.00,NW,315,0.0,6.0,40,0.00,,,0.00,WUHU216HW,2013-03-10 03:15:00,
2013-03-09 22:20:00,52.8,29.7,0.00,NW,315,0.0,6.0,41,0.00,,,0.00,WUHU216HW,2013-03-10 03:20:00,
2013-03-09 22:25:00,52.8,29.7,0.00,NNW,338,6.0,7.1,41,0.00,,,0.00,WUHU216HW,2013-03-10 03:25:00,
2013-03-09 22:30:00,52.8,29.7,0.00,NW,315,2.9,7.1,41,0.00,,,0.00,WUHU216HW,2013-03-10 03:30:00,
2013-03-09 22:35:00,52.8,29.7,0.00,WNW,293,4.0,5.5,41,0.00,,,0.00,WUHU216HW,2013-03-10 03:35:00,
2013-03-09 22:40:00,52.7,29.5,0.00,NW,315,0.0,5.5,41,0.00,,,0.00,WUHU216HW,2013-03-10 03:40:00,
2013-03-09 22:45:00,52.7,29.5,0.00,NW,315,1.1,4.4,41,0.00,,,0.00,WUHU216HW,2013-03-10 03:45:00,
2013-03-09 22:50:00,52.7,29.5,0.00,NNW,338,0.0,8.9,41,0.00,,,0.00,WUHU216HW,2013-03-10 03:50:00,
2013-03-09 22:55:00,52.5,29.9,0.00,NW,315,6.4,8.9,42,0.00,,,0.00,WUHU216HW,2013-03-10 03:55:00,
2013-03-09 23:00:00,52.5,29.9,0.00,NW,315,2.0,6.4,42,0.00,,,0.00,WUHU216HW,2013-03-10 04:00:00,
2013-03-09 23:05:00,52.5,29.9,0.00,NW,315,1.5,4.9,42,0.00,,,0.00,WUHU216HW,2013-03-10 04:05:00,
2013-03-09 23:10:00,52.5,29.9,0.00,NW,315,3.8,4.0,42,0.00,,,0.00,WUHU216HW,2013-03-10 04:10:00,
2013-03-09 23:15:00,52.3,29.8,0.00,WNW,293,0.0,4.0,42,0.00,,,0.00,WUHU216HW,2013-03-10 04:15:00,
2013-03-09 23:20:00,52.3,29.8,0.00,NW,315,6.2,6.2,42,0.00,,,0.00,WUHU216HW,2013-03-10 04:20:00,
2013-03-09 23:25:00,52.3,29.8,0.00,WNW,293,4.4,6.2,42,0.00,,,0.00,WUHU216HW,2013-03-10 04:25:00,
2013-03-09 23:30:00,52.3,29.8,0.00,West,270,1.1,4.4,42,0.00,,,0.00,WUHU216HW,2013-03-10 04:30:00,
2013-03-09 23:35:00,52.1,29.6,0.00,WNW,293,0.0,2.4,42,0.00,,,0.00,WUHU216HW,2013-03-10 04:35:00,
2013-03-09 23:40:00,51.9,29.4,0.00,WNW,293,3.1,3.1,43,0.00,,,0.00,WUHU216HW,2013-03-10 04:40:00,
2013-03-09 23:45:00,51.9,29.4,0.00,WNW,293,0.0,3.8,42,0.00,,,0.00,WUHU216HW,2013-03-10 04:45:00,
2013-03-09 23:50:00,51.9,29.4,0.00,WNW,293,0.0,3.8,42,0.00,,,0.00,WUHU216HW,2013-03-10 04:50:00,
2013-03-09 23:55:00,51.9,29.4,0.00,WNW,293,0.0,3.8,42,0.00,,,0.00,WUHU216HW,2013-03-10 04:55:00,